Location: Pinon Hills
(34.4429°N, 117.6403°W)
Time: 16:49:04
(UTC-07:00)

Daily predictions for brighter satellites

Satellite Brightness Start Highest point End
(mag) Time Altitude Azimuth Time Altitude Azimuth Time Altitude Azimuth
Cosmos 1452 Rocket 3.9 18:57:00 10° N 19:02:01 44° ENE 19:07:00 10° SE
ALOS 4.1 19:00:27 10° E 19:02:02 12° ENE 19:03:38 10° NE
Cosmos 2297 3.9 18:58:32 10° NNW 19:04:12 78° WSW 19:09:48 10° SSE
SL-8 R/B 4.0 19:01:06 10° WSW 19:05:52 68° NW 19:10:38 10° NE
ISS -3.2 19:02:43 10° SW 19:05:57 75° NW 19:09:12 10° NE
Cosmos 1707 4.5 19:02:26 10° NNW 19:06:02 38° W 19:09:36 10° SSW
Resurs 01 Rocket 2.9 19:02:39 10° ESE 19:06:02 22° ENE 19:09:27 10° NNE
Cosmos 1943 4.1 19:03:39 10° SSE 19:08:12 26° ESE 19:12:45 10° NE
Helios 1B rocket 3.4 19:05:00 10° NE 19:08:25 25° E 19:11:50 10° SSE
Cosmos 1953 2.5 19:05:32 10° SSE 19:09:22 49° E 19:13:13 10° NNE
Cosmos 2369 Rocket 3.8 19:06:23 10° NNE 19:09:43 16° NE 19:12:52 10° E
Gbstr 26 Del rocket 3.2 19:08:47 10° SSW 19:12:49 57° SE 19:17:40 10° NE
BREEZE-M DEB (TANK) 2.5 19:12:30 10° WNW 19:14:45 59° SW 19:19:58 10° SE
Cosmos 1603 3.7 19:09:38 10° SSW 19:15:20 77° ESE 19:21:06 10° NNE
SL-19 R/B 4.3 19:09:57 10° SSE 19:15:32 73° ENE 19:21:28 10° N
CENTAUR R/B 2.8 19:10:11 10° S 19:15:39 41° ESE 19:21:40 10° NE
Cosmos 468 4.4 19:11:25 10° S 19:16:38 74° ESE 19:21:52 10° NNE
COSMO-SKYMED 1 3.6 19:13:50 10° N 19:18:03 51° WNW 19:22:15 10° SSW
Cosmos 1470 3.8 19:17:53 10° SE 19:20:59 23° E 19:24:06 10° NE
Cosmos 1674 4.0 19:21:40 10° NNE 19:24:38 21° ENE 19:26:29 15° ESE
ATLAS CENTAUR R/B 4.2 19:22:13 10° WNW 19:24:40 16° WSW 19:27:00 10° SSW
Meteor 1-24 Rocket 4.5 19:19:51 10° NNW 19:25:14 54° W 19:30:27 10° S
In-Cosmos 22 4.2 19:22:45 10° N 19:28:33 76° E 19:34:14 10° SSE
ASTRO E2 3.7 19:25:16 10° W 19:29:03 39° SSW 19:32:03 15° SE
Cosmos 1076 Rocket 3.6 19:25:05 10° N 19:29:26 80° W 19:33:47 10° S
ATLAS CENTAUR R/B 4.1 19:26:05 10° WSW 19:30:38 53° NW 19:44:23 10° NE
Spot 2 Rocket 3.7 19:27:38 10° SE 19:32:26 46° ENE 19:37:14 10° N
Nadezhda 4 Rocket 4.2 19:28:19 10° N 19:34:22 49° E 19:40:18 10° SSE
Cosmos 1766 Rocket 3.5 19:31:01 10° N 19:35:23 85° W 19:39:43 10° S
Cosmos-2242 3.0 19:31:15 10° S 19:35:36 87° W 19:40:01 10° N
HJ-1C 3.7 19:32:45 10° SSE 19:35:57 43° ENE 19:39:10 10° N
Cosmos 1048 Rocket 3.9 19:31:03 10° S 19:36:20 73° ESE 19:41:34 10° NNE
FREGAT/IRIS 2.5 19:33:25 10° SSE 19:36:30 76° ENE 19:39:35 10° N
SJ-6B 2.9 19:33:32 10° S 19:37:31 83° WSW 19:41:36 10° NNW
Cosmos 1346 3.0 19:36:50 10° N 19:39:45 53° E 19:42:02 15° SSE
ATLAS 5 CENTAUR R/B 4.0 19:37:05 10° WSW 19:41:05 26° NW 19:45:21 10° N
Cosmos 1544 3.0 19:37:37 10° S 19:41:21 88° E 19:45:06 10° N
Cosmos 1269 Rocket 4.1 19:36:47 10° SSW 19:42:03 84° WNW 19:47:22 10° NNE
SAR-Lupe-4 4.5 19:40:40 10° S 19:44:08 51° W 19:47:39 10° NNW
Cosmos 1092 Rocket 4.3 19:38:35 10° N 19:44:25 42° E 19:50:10 10° SSE
Cosmos 158 Rocket 3.9 19:43:02 10° S 19:47:45 51° ESE 19:52:28 10° NNE
Cosmos 1174 4.0 19:42:50 10° SSW 19:47:56 74° ESE 19:51:58 10° NNE
CZ-4B DEB 4.4 19:55:35 22° NNE 19:55:35 22° NNE 19:57:10 10° N
FengYun 1-2 T 4.2 19:49:15 10° SSE 19:54:39 61° ENE 20:00:03 10° N
Cosmos 1634 Rocket 4.1 19:50:51 10° SSE 19:56:48 49° E 20:02:45 10° NNE
METEOR-M 4.2 19:52:55 10° SSE 19:58:16 83° WSW 20:03:39 10° NNW
OAO 3 Rocket 3.1 19:55:57 10° W 20:00:43 77° SSW 20:02:28 39° ESE
OAO 1 Rocket 4.4 19:58:44 10° W 20:04:08 89° N 20:06:10 39° E
Cosmos 1842 Rocket 3.5 20:00:28 10° S 20:04:47 88° W 20:09:09 10° N
USA 215 3.2 19:58:29 10° NE 20:05:03 85° NW 20:11:35 10° SW
Cosmos 1500 Rocket 3.4 20:03:00 10° N 20:07:27 72° E 20:10:05 24° SSE
SeaSat 1 4.4 20:12:56 14° SSE 20:12:56 14° SSE 20:13:44 10° S
Helios 1A 3.1 20:07:28 10° S 20:11:39 73° WSW 20:15:53 10° NNW
AVUM R/B 4.4 20:10:12 10° SSW 20:11:52 30° SSW 20:11:52 30° SSW
CZ-2D R/B 4.0 20:17:14 40° NNE 20:17:14 40° NNE 20:19:58 10° N
FENGYUN 3A 3.5 20:13:59 26° SSE 20:17:07 72° ENE 20:22:29 10° N
Meteor 1-29 4.3 20:15:16 10° N 20:18:35 41° WNW 20:21:52 10° SW
GPS 2-04 Rocket1 3.0 20:21:22 10° W 20:24:12 54° WNW 20:24:12 54° WNW
H-2A R/B 3.7 20:27:37 40° N 20:27:37 40° N 20:30:11 10° N
ASTEX 1 4.0 20:33:40 10° N 20:38:27 54° W 20:43:11 10° SSW
SEDSat Delta rocket 4.5 20:32:17 10° W 20:38:40 49° SSW 20:39:58 43° SSE
ALOS 2.7 20:37:20 39° SSW 20:38:54 61° W 20:43:32 10° NNW
Resurs 01 Rocket 3.6 20:38:31 10° SSW 20:42:19 28° W 20:46:09 10° NW
ISS -0.2 20:42:07 10° NW 20:42:55 11° NNW 20:43:12 11° NNW
Cosmos 1943 Rocket 3.2 20:40:51 10° N 20:44:16 32° NNE 20:44:16 32° NNE
Cosmos 2251 Rocket 3.6 20:40:58 10° SSW 20:46:11 73° WNW 20:51:26 10° NNE
Cosmos 1627 Rocket 4.4 20:41:33 10° N 20:47:48 89° E 20:49:09 58° S
Cosmos 2369 Rocket 2.4 20:48:36 10° NNW 20:54:13 67° WSW 20:54:43 64° SW
CENTAUR R/B 4.1 21:01:03 10° WSW 21:06:22 31° NW 21:12:15 10° NNE
Cosmos 839 Rocket 4.4 21:09:40 10° NNW 21:16:39 63° WSW 21:16:39 63° WSW
Cosmos 2279 Rocket 4.3 21:16:56 61° WNW 21:16:56 61° WNW 21:23:01 10° N
